TimeCST,TemperatureF,Dew PointF,Humidity,Sea Level PressureIn,VisibilityMPH,Wind Direction,Wind SpeedMPH,Gust SpeedMPH,PrecipitationIn,Events,Conditions,WindDirDegrees,DateUTC
12:21 AM,41.0,41.0,100,30.09,10.0,WNW,15.0,-,N/A,,Overcast,300,2012-11-12 06:21:00
12:22 AM,41.0,41.0,100,30.09,10.0,WNW,11.5,-,N/A,,Overcast,290,2012-11-12 06:22:00
12:24 AM,41.0,41.0,100,30.09,10.0,WNW,10.4,-,N/A,Rain,Light Rain,290,2012-11-12 06:24:00
12:41 AM,39.2,37.4,93,30.08,10.0,WNW,13.8,21.9,N/A,Rain,Light Rain,300,2012-11-12 06:41:00
12:55 AM,38.7,37.6,96,30.09,10.0,WNW,10.4,-,0.01,Rain,Light Rain,300,2012-11-12 06:55:00
1:37 AM,37.4,35.6,93,30.12,10.0,NW,19.6,27.6,N/A,,Overcast,310,2012-11-12 07:37:00
1:44 AM,37.4,35.6,93,30.12,10.0,WNW,18.4,25.3,N/A,Rain,Light Rain,300,2012-11-12 07:44:00
1:55 AM,36.9,36.0,97,30.14,10.0,WNW,17.3,25.3,0.00,Rain,Light Rain,290,2012-11-12 07:55:00
2:07 AM,37.4,35.6,93,30.16,10.0,WNW,16.1,24.2,N/A,Rain,Light Rain,300,2012-11-12 08:07:00
2:21 AM,37.4,33.8,87,30.17,10.0,NW,18.4,25.3,N/A,,Overcast,310,2012-11-12 08:21:00
2:43 AM,35.6,33.8,93,30.16,10.0,NW,13.8,-,N/A,Rain,Light Rain,310,2012-11-12 08:43:00
2:52 AM,35.6,33.8,93,30.14,10.0,NW,11.5,-,N/A,,Overcast,320,2012-11-12 08:52:00
2:55 AM,36.3,33.6,90,30.14,10.0,NW,10.4,-,0.00,Rain,Light Rain,320,2012-11-12 08:55:00
3:37 AM,35.6,32.0,87,30.19,10.0,WNW,18.4,-,N/A,,Overcast,300,2012-11-12 09:37:00
3:55 AM,35.4,30.4,82,30.20,10.0,WNW,16.1,-,0.00,,Overcast,290,2012-11-12 09:55:00
4:09 AM,33.8,26.6,75,30.20,10.0,NW,18.4,24.2,N/A,,Overcast,310,2012-11-12 10:09:00
4:22 AM,33.8,26.6,75,30.21,10.0,NW,19.6,-,N/A,,Overcast,310,2012-11-12 10:22:00
4:38 AM,32.0,26.6,80,30.22,10.0,NW,13.8,20.7,N/A,,Mostly Cloudy,310,2012-11-12 10:38:00
4:55 AM,32.5,25.7,76,30.23,10.0,WNW,15.0,-,N/A,,Scattered Clouds,300,2012-11-12 10:55:00
5:55 AM,30.7,24.1,76,30.26,10.0,WNW,11.5,-,N/A,,Clear,290,2012-11-12 11:55:00
6:55 AM,29.8,21.9,72,30.30,10.0,WNW,12.7,-,N/A,,Clear,300,2012-11-12 12:55:00
7:55 AM,31.5,20.8,65,30.33,10.0,WNW,12.7,-,N/A,,Clear,290,2012-11-12 13:55:00
8:55 AM,33.4,20.3,59,30.35,10.0,WNW,12.7,-,N/A,,Clear,290,2012-11-12 14:55:00
9:55 AM,36.9,21.2,53,30.36,10.0,WNW,11.5,-,N/A,,Clear,300,2012-11-12 15:55:00
10:55 AM,40.3,21.9,48,30.36,10.0,West,10.4,-,N/A,,Clear,260,2012-11-12 16:55:00
11:55 AM,43.0,21.4,42,30.35,10.0,WNW,17.3,24.2,N/A,,Clear,290,2012-11-12 17:55:00
12:55 PM,43.9,20.1,39,30.33,10.0,West,12.7,-,N/A,,Clear,280,2012-11-12 18:55:00
1:55 PM,44.8,19.8,37,30.32,10.0,West,17.3,24.2,N/A,,Clear,270,2012-11-12 19:55:00
2:55 PM,45.3,20.5,37,30.33,10.0,West,16.1,-,N/A,,Clear,270,2012-11-12 20:55:00
3:55 PM,44.6,20.1,38,30.35,10.0,West,13.8,-,N/A,,Clear,270,2012-11-12 21:55:00
4:55 PM,42.4,21.2,43,30.36,10.0,West,8.1,-,N/A,,Clear,270,2012-11-12 22:55:00
5:55 PM,39.6,21.7,49,30.39,10.0,West,6.9,-,N/A,,Clear,280,2012-11-12 23:55:00
6:55 PM,38.1,23.5,56,30.40,10.0,WSW,3.5,-,N/A,,Clear,250,2012-11-13 00:55:00
7:55 PM,36.5,24.3,61,30.43,10.0,West,4.6,-,N/A,,Clear,270,2012-11-13 01:55:00
8:55 PM,33.8,25.0,70,30.43,10.0,Calm,Calm,-,N/A,,Clear,0,2012-11-13 02:55:00
9:55 PM,31.8,25.2,76,30.44,10.0,Calm,Calm,-,N/A,,Clear,0,2012-11-13 03:55:00
10:55 PM,31.5,23.7,73,30.45,10.0,Calm,Calm,-,N/A,,Clear,0,2012-11-13 04:55:00
11:55 PM,30.6,24.6,79,30.46,10.0,Calm,Calm,-,N/A,,Clear,0,2012-11-13 05:55:00